Location: Palomar Mountain Lodge
(33.3110°N, 116.8495°W)
Time: 11:28:21
(UTC-07:00)

DX 1 - Visible Passes

Search period start: 11 April 2026 00:00
Search period end: 21 April 2026 00:00
Orbit: 593 x 604 km, 98.4° (Epoch: 11 April)

Date Brightness Start Highest point End Pass type
(mag) Time Alt. Az. Time Alt. Az. Time Alt. Az.
11 Apr ? 03:15:23 10° NNE 03:16:31 17° NE 03:16:31 17° NE visible
11 Apr ? 04:52:24 10° NW 04:53:14 12° NW 04:53:14 12° NW visible
12 Apr ? 03:25:52 10° NNE 03:27:25 21° NNE 03:27:25 21° NNE visible
13 Apr ? 03:36:25 10° NNE 03:38:18 26° NNE 03:38:18 26° NNE visible
14 Apr ? 03:47:02 10° N 03:49:12 30° N 03:49:12 30° N visible
15 Apr ? 03:57:42 10° N 04:00:05 32° N 04:00:05 32° N visible
16 Apr ? 04:08:26 10° N 04:10:58 31° NNW 04:10:58 31° NNW visible
17 Apr ? 02:44:53 10° ENE 02:45:07 11° ENE 02:45:07 11° ENE visible
17 Apr ? 04:19:15 10° N 04:21:50 28° NW 04:21:50 28° NW visible
18 Apr ? 02:54:55 10° NE 02:55:59 15° ENE 02:55:59 15° ENE visible
18 Apr ? 04:30:08 10° NNW 04:32:43 23° NW 04:32:43 23° NW visible
19 Apr ? 03:05:09 10° NE 03:06:52 20° ENE 03:06:52 20° ENE visible
19 Apr ? 04:41:07 10° NNW 04:43:35 19° WNW 04:43:35 19° WNW visible
20 Apr ? 03:15:30 10° NNE 03:17:44 26° NE 03:17:44 26° NE visible
20 Apr ? 04:52:17 10° NNW 04:54:28 15° WNW 04:54:28 15° WNW visible
